Dewpoint
59 59 59 58 57 56 55 54 52 49 49 50 49 50 50 50 50 50 48 48 48 49 49 47 47 44 42 41 40 39 38 36 34 33 34 34 34 33
58 58 59 59 58 57 55 54 54 52 50 51 51 51 51 51 51 48 45 45 46 47 47 46 44 42 40 39 38 36 35 33 33 33 33 33 33 32
57 57 57 58 57 56 56 55 54 53 52 52 53 53 51 50 47 42 42 42 44 46 45 43 41 40 38 37 35 33 33 32 32 32 32 32 32 31
53 55 54 55 56 57 56 55 54 54 53 52 52 53 50 46 44 42 41 40 41 43 42 40 39 37 35 35 32 32 32 31 31 31 30 30 30 30
50 51 52 54 54 54 56 55 54 54 54 53 52 53 49 43 41 41 40 38 37 38 39 37 36 34 35 31 31 32 31 31 30 30 29 29 29 30
49 50 51 52 53 54 54 55 55 55 54 53 53 52 45 41 42 41 38 38 36 36 36 33 33 33 32 31 30 29 30 30 30 29 29 29 29 28
46 47 48 50 51 53 54 54 55 55 54 53 52 49 43 40 41 41 41 38 38 33 28 27 29 29 28 28 29 29 29 28 29 29 29 29 29 28
45 46 47 49 50 51 53 53 54 54 53 52 52 50 47 46 44 42 41 37 34 31 27 26 25 25 26 24 25 25 25 26 27 29 29 29 28 27
44 45 46 48 49 51 52 53 54 53 54 54 53 52 50 48 44 42 41 38 34 28 26 22 23 22 23 23 25 25 25 26 27 28 29 28 27 27
42 43 45 46 48 49 50 51 51 53 54 53 54 54 52 50 46 44 41 33 28 28 25 13 23 21 23 24 25 24 25 25 26 28 28 26 26 26
40 41 41 43 43 47 48 49 48 51 49 50 53 53 53 49 44 38 34 32 25 22 23 20 20 20 20 20 21 22 22 24 26 26 25 24 25 26
35 36 40 41 42 43 45 46 47 48 45 42 43 44 44 44 42 40 33 31 28 26 25 20 20 19 15 20 19 20 20 23 20 20 20 21 22 23
29 31 35 39 41 41 42 43 44 48 43 40 36 34 34 33 33 33 34 32 27 23 26 23 22 22 19 19 19 18 18 17 18 19 19 18 19 21
30 30 34 37 39 40 42 43 45 46 39 35 32 31 30 30 31 31 31 30 28 25 27 23 21 21 19 18 16 17 17 17 18 17 17 18 18 19
30 32 35 38 39 41 41 42 44 42 36 32 32 31 30 30 30 29 29 29 28 28 26 23 20 21 19 17 17 19 19 19 19 20 18 17 15 16
31 34 38 40 42 42 42 43 42 37 35 33 32 31 30 28 27 27 25 25 24 24 26 25 23 22 21 21 20 19 19 19 19 19 17 17 17 17
33 35 37 36 37 38 37 34 34 35 33 31 29 28 27 27 26 26 25 25 23 23 23 24 25 24 22 20 20 20 20 20 19 19 17 14 15 16
31 33 34 33 34 35 34 31 32 30 29 29 28 27 26 26 25 26 26 24 21 21 22 23 22 19 17 18 23 20 20 20 20 17 15 14 13 15
28 31 32 32 32 33 32 31 30 29 29 28 27 26 26 25 25 25 24 21 21 20 20 20 18 16 13 7 14 22 22 21 20 18 16 13 14 15
27 28 31 32 31 31 31 30 28 27 27 27 26 26 26 25 24 24 22 20 20 20 20 19 18 16 16 12 14 15 16 14 13 14 15 16 17 20
25 27 30 32 31 31 31 29 28 27 27 26 26 26 26 25 24 22 21 21 20 19 17 18 18 20 16 14 11 11 14 18 19 19 21 22 21 21
24 27 31 32 31 31 29 28 27 28 26 27 26 26 26 26 22 21 21 20 20 18 16 16 16 16 16 16 13 15 16 18 20 23 27 28 24 20
25 28 30 31 31 31 29 28 28 27 27 26 26 26 26 22 21 21 20 20 18 15 16 13 14 14 15 15 17 18 18 20 23 23 23 26 28 29
Wind_Speed
25 26 26 27 25 24 25 26 28 29 29 23 22 20 22 22 25 23 22 24 23 22 22 21 21 17 14 13 13 12 12 12 13 14 13 14 15 16
24 26 27 26 26 24 24 25 26 29 34 24 22 20 21 20 18 20 21 22 23 23 22 20 19 18 16 14 13 12 11 10 10 12 13 13 14 15
24 25 28 28 26 24 24 25 27 27 30 30 23 18 19 20 15 11 13 15 18 23 23 20 18 18 18 15 13 11 9 8 10 11 12 14 14 15
25 26 31 28 29 25 24 27 26 27 26 33 26 19 15 13 13 17 14 12 15 22 23 22 21 19 17 14 12 10 9 9 11 11 13 13 15 16
21 24 27 28 30 29 27 29 27 26 24 25 28 19 8 9 7 10 13 14 13 20 23 22 20 18 15 12 10 11 11 11 12 13 14 14 16 16
21 22 26 28 29 29 28 29 27 27 24 25 27 22 7 6 8 15 13 14 16 15 18 17 17 16 14 11 12 13 13 13 13 13 15 16 17 15
23 24 25 26 31 33 29 30 27 25 26 25 26 17 12 8 20 15 19 17 17 13 14 14 12 12 12 12 13 13 14 14 13 14 16 18 15 18
23 26 25 26 25 29 32 34 35 34 29 27 26 22 23 21 15 19 17 10 10 13 15 13 12 14 13 11 13 14 15 14 13 16 17 17 16 18
23 25 27 23 24 23 26 28 31 36 36 35 27 26 28 26 22 19 21 16 12 9 11 8 10 16 12 11 15 17 16 15 15 16 17 18 19 20
23 24 25 27 27 27 26 24 27 26 28 26 30 29 27 19 29 26 20 12 12 9 6 7 7 11 11 13 17 16 15 16 14 16 16 18 19 20
24 25 26 27 28 30 29 27 27 29 13 16 26 27 25 27 25 22 21 22 7 7 10 3 5 5 5 9 10 12 14 12 13 15 17 18 18 19
25 26 28 29 31 32 29 28 26 28 17 9 4 5 10 12 18 20 26 22 12 4 10 11 7 5 3 4 4 4 4 10 14 16 16 17 18 13
26 26 26 33 36 37 36 31 29 29 18 14 12 13 13 12 14 10 10 19 16 5 10 8 6 6 3 1 3 6 6 6 8 10 15 18 17 14
28 27 28 37 43 42 36 34 36 33 13 14 15 16 17 15 14 13 15 12 10 11 18 10 7 7 6 2 5 2 3 10 11 14 11 11 15 16
25 31 41 41 40 34 31 33 31 13 16 15 17 13 16 17 19 16 15 16 15 13 11 6 10 9 7 7 3 4 6 3 11 14 13 11 11 12
29 31 32 33 28 25 26 23 9 13 14 12 12 13 16 16 20 13 13 11 11 7 7 10 10 10 7 10 9 13 10 6 5 12 13 14 13 13
36 24 24 25 23 22 15 8 5 4 5 9 12 14 15 14 17 15 13 11 7 10 7 6 9 9 11 11 11 15 14 13 13 15 12 14 12 14
22 21 24 24 23 21 12 6 5 6 8 10 12 13 15 13 13 14 13 10 11 11 8 8 5 1 3 9 22 15 9 14 12 13 12 16 18 13
18 21 21 23 22 20 12 4 3 6 10 11 12 13 13 11 12 13 12 12 11 9 8 6 4 3 3 6 6 12 14 13 13 14 13 13 18 17
18 20 23 23 23 20 16 6 8 10 11 13 15 16 15 12 11 12 12 13 11 8 6 4 4 6 4 3 5 8 12 14 13 15 16 14 17 23
22 21 23 23 23 20 11 5 8 10 12 14 15 16 15 14 11 11 13 13 12 6 6 4 3 5 4 0 6 10 11 13 16 16 15 15 16 15
22 22 23 23 22 19 8 4 6 9 12 13 13 14 14 12 12 14 12 13 9 7 3 1 2 3 2 6 15 15 17 15 13 20 19 19 13 6
22 22 23 22 21 16 7 5 5 6 7 10 12 13 13 13 12 12 12 10 9 6 2 3 4 3 8 10 15 16 19 19 13 18 13 15 19 21
Wind_Direction
247 246 245 247 246 240 239 239 246 262 260 249 239 224 222 220 223 215 202 205 204 209 212 203 194 198 212 226 238 247 262 274 283 280 283 290 287 288
250 248 246 246 247 241 238 241 240 244 260 253 249 234 219 217 218 202 201 194 198 202 196 191 191 203 214 222 230 243 254 264 271 278 281 283 286 290
265 258 254 251 248 244 242 243 244 241 248 262 252 249 226 212 191 193 186 184 189 191 190 190 198 209 214 215 226 237 238 256 271 277 280 280 284 289
288 283 277 269 260 249 242 244 243 244 246 257 258 246 225 211 198 190 191 200 194 190 193 196 204 214 218 215 227 227 237 257 266 273 278 278 279 277
291 292 291 285 275 266 249 246 243 243 238 247 257 248 198 175 184 199 204 212 203 198 193 197 205 219 216 224 227 235 245 253 259 264 271 269 266 277
293 287 284 282 280 276 268 255 244 241 241 236 245 242 198 175 186 196 194 202 203 192 192 194 204 212 218 222 236 243 246 243 254 261 262 263 263 272
304 296 290 282 282 279 275 273 266 245 242 240 240 219 191 180 200 204 207 199 202 190 191 190 193 209 223 232 233 236 239 244 248 255 266 261 267 274
311 306 299 291 289 288 284 274 267 260 261 251 234 224 215 214 194 199 189 183 200 200 189 201 187 216 214 207 225 227 236 241 249 260 258 259 268 275
314 314 308 298 294 291 289 286 274 260 249 257 259 232 219 207 197 191 193 193 192 174 167 195 196 227 218 211 224 232 239 245 250 251 251 262 263 270
317 315 311 316 313 301 298 291 289 272 255 246 249 249 243 202 197 198 188 138 98 136 158 191 189 207 206 217 227 236 246 249 244 244 254 265 267 270
319 321 316 311 307 309 312 299 308 284 265 265 249 251 228 192 170 146 156 166 152 171 187 187 183 173 210 236 241 248 242 225 237 253 263 266 267 270
320 315 310 307 309 311 309 308 299 295 245 215 160 117 157 164 168 185 160 162 127 158 190 170 168 165 232 248 196 200 207 243 261 268 265 269 269 263
317 314 311 308 308 306 304 297 289 289 235 187 147 127 125 120 113 121 134 152 151 142 178 145 152 163 206 228 289 261 241 264 279 278 279 276 274 266
312 309 307 306 302 297 296 290 288 292 183 168 161 156 147 131 114 110 106 95 89 138 152 136 141 163 165 197 249 263 301 292 275 271 268 268 276 276
309 305 304 300 298 296 290 288 289 220 183 178 177 164 146 133 118 105 93 99 88 101 134 138 143 157 176 199 223 247 318 305 288 272 277 271 264 263
315 310 306 307 305 298 297 293 249 185 187 180 160 132 130 139 129 132 133 132 120 141 157 145 157 176 210 233 243 266 249 265 280 294 283 281 269 256
315 316 325 328 327 321 312 342 20 68 122 116 127 132 134 147 134 137 142 150 147 162 159 179 201 208 224 234 258 249 260 258 253 269 273 279 274 261
323 325 326 328 329 322 316 329 30 86 108 117 123 134 139 144 144 135 140 159 155 151 152 177 163 282 303 265 228 250 244 257 264 271 275 281 282 271
328 326 325 326 322 318 293 244 183 150 133 131 131 129 127 131 153 141 152 155 146 156 160 141 151 171 278 309 304 230 246 261 270 276 268 256 272 281
328 328 323 323 322 316 306 230 162 145 140 136 135 132 137 143 160 151 158 151 153 158 153 169 196 203 207 251 281 260 282 279 274 272 274 270 266 274
328 327 323 322 323 317 300 212 172 162 150 143 141 146 138 145 153 152 150 156 163 153 179 223 231 166 164 235 279 288 286 257 254 267 276 269 277 284
326 327 324 323 322 316 291 208 165 158 150 149 147 137 134 139 149 148 151 159 160 158 148 26 274 217 233 242 284 289 293 299 281 281 276 267 258 258
327 322 322 320 323 316 264 213 181 152 144 126 126 130 131 135 135 138 154 156 140 117 99 1 350 272 260 273 288 288 299 302 310 319 303 281 265 259